Retour au catalogue

STARLINK-36560

ActifCommunicationsSSO
NORAD 67585·PAYLOAD·🇺🇸 United States

Lancé Jan 25, 2026 depuis Vandenberg Space Force Base

Loading…

Prochains Passages (prochaines 24 heures)

TLE

FraisSource: CelesTrak SupGP

Époque: Sep 14, 2026, 22:53 UTC

1 67585C 26016AA  26257.95395833  .00007475  00000+0  23210-3 0  2573
2 67585  97.2850 316.6319 0000647  88.8106   2.3288 15.33430552    16

Suivez STARLINK-36560 en temps réel avec AllMySat

Download on the App Store